Weather History for KFMM - September, 2013

Change the Weather History Date:

Friday, September 13, 2013

  Actual Average (KAKO) Record (KAKO)
Temperature  
Mean Temperature 64 °F 64 °F  
Max Temperature 70 °F 78 °F 96 °F (1939)
Min Temperature 59 °F 50 °F 32 °F (1974)
Degree Days  
Heating Degree Days 0    
Month to date heating degree days  
Cooling Degree Days 0    
Month to date cooling degree days  
Growing Degree Days 14 (Base 50)    
Moisture  
Dew Point 60 °F    
Average Humidity 87    
Maximum Humidity 96    
Minimum Humidity 67    
Precipitation  
Precipitation 0.00 in 0.04 in 0.78 in (2013)
Month to date precipitation 0.56  
Year to date precipitation 14.05  
Sea Level Pressure  
Sea Level Pressure 30.07 in    
Wind  
Wind Speed 15 mph (ESE)    
Max Wind Speed 21 mph    
Max Gust Speed 29 mph    
Visibility 9 miles    
Events Rain    
T = Trace of Precipitation, MM = Missing Value Source: NWS Daily Summary

Daily Weather History Graph

Daily Weather History Graph

Search for Another Location

Airport or City:

Trip Planner

Search our weather history database for the weather conditions in past years. The results will help you decide how hot, cold, wet, or windy it might be!

Date:

Astronomy

Sep. 13, 2013 Rise Set
Actual Time 6:34 AM MDT 7:06 PM MDT
Civil Twilight 6:07 AM MDT 7:34 PM MDT
Nautical Twilight 5:34 AM MDT 8:06 PM MDT
Astronomical Twilight 5:01 AM MDT 8:39 PM MDT
Moon 2:59 PM MDT (9/13) 12:05 AM MDT (9/13)
Length of Visible Light 13h 27m
Length of Day
12h 32m
Waxing Gibbous, 62% of the Moon is Illuminated
Sep 13
Waxing Gibbous
Sep 19
Full
Sep 26
Last Quarter
Oct 4
New
Oct 11
First Quarter

Hourly Weather History & Observations

Time (MDT) Temp. Dew Point Humidity Pressure Visibility Wind Dir Wind Speed Gust Speed Precip Events Conditions
12:15 AM 60.8 °F 59.5 °F 96% 30.23 in 5.0 mi East 11.5 mph - N/A Rain Rain
12:35 AM 60.8 °F 59.5 °F 96% 30.22 in 5.0 mi East 11.5 mph - N/A Rain Heavy Rain
12:55 AM 60.8 °F 59.5 °F 96% 30.21 in 10.0 mi East 11.5 mph - N/A   Overcast
1:15 AM 60.8 °F 59.5 °F 96% 30.20 in 7.0 mi East 13.8 mph - N/A   Light Drizzle
1:35 AM 60.8 °F 59.4 °F 95% 30.20 in 10.0 mi East 13.8 mph - N/A   Overcast
1:55 AM 60.8 °F 59.2 °F 94% 30.19 in 7.0 mi East 12.7 mph - N/A Rain Light Rain
2:15 AM 60.8 °F 59.4 °F 95% 30.19 in 10.0 mi East 10.4 mph - N/A   Overcast
2:35 AM 60.8 °F 59.5 °F 96% 30.18 in 7.0 mi East 11.5 mph - N/A Rain Light Rain
2:55 AM 60.8 °F 59.7 °F 96% 30.18 in 7.0 mi ESE 11.5 mph 16.1 mph N/A Rain Light Rain
3:15 AM 60.8 °F 59.5 °F 96% 30.17 in 7.0 mi ESE 12.7 mph 18.4 mph N/A Rain Light Rain
3:35 AM 60.8 °F 59.4 °F 95% 30.17 in 5.0 mi ESE 16.1 mph - N/A Rain Rain
3:55 AM 60.6 °F 59.0 °F 94% 30.17 in 7.0 mi ESE 16.1 mph 20.7 mph N/A Rain Rain
4:15 AM 60.3 °F 58.8 °F 95% 30.17 in 7.0 mi ESE 18.4 mph 27.6 mph N/A Rain Light Rain
4:35 AM 60.1 °F 58.6 °F 95% 30.17 in 5.0 mi ESE 17.3 mph 25.3 mph N/A Rain Rain
4:55 AM 60.1 °F 58.5 °F 94% 30.16 in 7.0 mi ESE 16.1 mph 24.2 mph N/A Rain Light Rain
5:15 AM 59.9 °F 58.5 °F 95% 30.16 in 7.0 mi ESE 16.1 mph 25.3 mph N/A Rain Light Rain
5:35 AM 59.9 °F 58.5 °F 95% 30.15 in 5.0 mi ESE 16.1 mph 20.7 mph N/A Rain Light Rain
5:55 AM 59.9 °F 58.5 °F 95% 30.15 in 10.0 mi ESE 15.0 mph 19.6 mph N/A Rain Light Rain
6:15 AM 60.1 °F 58.5 °F 94% 30.14 in 7.0 mi ESE 13.8 mph 20.7 mph N/A Rain Light Rain
6:35 AM 60.1 °F 58.5 °F 94% 30.14 in 10.0 mi ESE 13.8 mph 19.6 mph N/A Rain Rain
6:55 AM 60.1 °F 58.5 °F 94% 30.14 in 10.0 mi ESE 12.7 mph 18.4 mph N/A Rain Rain
7:15 AM 60.3 °F 58.6 °F 94% 30.14 in 7.0 mi ESE 13.8 mph 19.6 mph N/A Rain Rain
7:35 AM 60.3 °F 59.0 °F 96% 30.14 in 5.0 mi ESE 13.8 mph 18.4 mph N/A Rain Light Rain
7:55 AM 60.4 °F 59.0 °F 95% 30.13 in 3.0 mi ESE 13.8 mph - N/A Rain Rain
8:15 AM 60.4 °F 59.0 °F 95% 30.12 in 5.0 mi ESE 17.3 mph 20.7 mph N/A Rain Light Rain
8:35 AM 60.8 °F 59.4 °F 95% 30.11 in 10.0 mi ESE 16.1 mph 21.9 mph N/A Rain Light Rain
8:55 AM 61.3 °F 59.5 °F 94% 30.11 in 7.0 mi SE 17.3 mph 23.0 mph N/A Rain Rain
9:15 AM 62.1 °F 59.9 °F 93% 30.11 in 10.0 mi SE 17.3 mph 24.2 mph N/A   Overcast
9:35 AM 62.8 °F 60.3 °F 91% 30.11 in 10.0 mi SE 19.6 mph 26.5 mph N/A   Overcast
9:55 AM 63.5 °F 60.6 °F 90% 30.11 in 10.0 mi SE 15.0 mph 21.9 mph N/A   Overcast
10:15 AM 64.8 °F 61.3 °F 89% 30.11 in 10.0 mi SE 15.0 mph 18.4 mph N/A   Overcast
10:35 AM 65.5 °F 61.9 °F 88% 30.10 in 10.0 mi SE 17.3 mph 23.0 mph N/A   Overcast
10:55 AM 65.7 °F 61.3 °F 86% 30.09 in 10.0 mi SE 16.1 mph 24.2 mph N/A   Overcast
11:15 AM 67.3 °F 61.2 °F 81% 30.08 in 10.0 mi SE 18.4 mph 25.3 mph N/A   Overcast
11:35 AM 65.7 °F 61.7 °F 87% 30.07 in 10.0 mi ESE 17.3 mph 24.2 mph N/A   Overcast
11:55 AM 67.6 °F 62.1 °F 82% 30.06 in 10.0 mi ESE 17.3 mph 27.6 mph N/A   Overcast
12:15 PM 68.7 °F 60.6 °F 75% 30.06 in 10.0 mi SE 15.0 mph 24.2 mph N/A   Overcast
12:35 PM 69.8 °F 59.4 °F 69% 30.05 in 10.0 mi SSE 20.7 mph 26.5 mph N/A   Overcast
12:55 PM 69.1 °F 58.8 °F 70% 30.05 in 10.0 mi SSE 19.6 mph 27.6 mph N/A   Overcast
1:15 PM 69.8 °F 59.2 °F 69% 30.04 in 10.0 mi SE 18.4 mph 27.6 mph N/A   Overcast
1:35 PM 69.8 °F 58.6 °F 68% 30.03 in 10.0 mi SE 15.0 mph 21.9 mph N/A   Overcast
1:55 PM 70.5 °F 59.0 °F 67% 30.02 in 10.0 mi SSE 15.0 mph 24.2 mph N/A   Overcast
2:15 PM 65.3 °F 60.4 °F 84% 30.02 in 10.0 mi ESE 19.6 mph 26.5 mph N/A   Overcast
2:35 PM 64.9 °F 60.6 °F 86% 30.01 in 10.0 mi East 20.7 mph 26.5 mph N/A   Overcast
2:55 PM 65.3 °F 61.0 °F 86% 30.00 in 10.0 mi ESE 20.7 mph 26.5 mph N/A   Overcast
3:15 PM 65.7 °F 61.2 °F 85% 30.00 in 10.0 mi East 16.1 mph 21.9 mph N/A   Overcast
3:35 PM 68.0 °F 61.3 °F 79% 29.99 in 10.0 mi ESE 15.0 mph 24.2 mph N/A   Overcast
3:55 PM 67.5 °F 61.3 °F 81% 29.99 in 10.0 mi ESE 17.3 mph 26.5 mph N/A   Overcast
4:15 PM 69.8 °F 61.9 °F 76% 29.98 in 10.0 mi ESE 16.1 mph 24.2 mph N/A   Overcast
4:35 PM 68.4 °F 61.9 °F 80% 29.98 in 10.0 mi ESE 17.3 mph 23.0 mph N/A   Mostly Cloudy
4:55 PM 67.6 °F 61.7 °F 81% 29.97 in 10.0 mi ESE 15.0 mph 23.0 mph N/A   Overcast
5:15 PM 68.2 °F 61.7 °F 80% 29.97 in 10.0 mi ESE 13.8 mph - N/A   Overcast
5:35 PM 68.9 °F 60.4 °F 74% 29.97 in 10.0 mi SE 16.1 mph 28.8 mph N/A   Overcast
5:55 PM 68.9 °F 61.2 °F 76% 29.97 in 10.0 mi SE 17.3 mph 21.9 mph N/A   Overcast
6:15 PM 67.8 °F 61.2 °F 79% 29.97 in 10.0 mi ESE 19.6 mph 23.0 mph N/A   Mostly Cloudy
6:35 PM 66.6 °F 61.2 °F 83% 29.97 in 10.0 mi SE 17.3 mph 23.0 mph N/A   Scattered Clouds
6:55 PM 66.2 °F 61.0 °F 83% 29.97 in 10.0 mi ESE 16.1 mph 25.3 mph N/A   Mostly Cloudy
7:15 PM 64.9 °F 60.8 °F 86% 29.97 in 7.0 mi SE 19.6 mph 26.5 mph N/A   Clear
7:35 PM 64.8 °F 60.3 °F 85% 29.97 in 7.0 mi SE 19.6 mph 27.6 mph N/A   Clear
7:55 PM 64.4 °F 59.9 °F 85% 29.98 in 7.0 mi SE 20.7 mph 24.2 mph N/A   Scattered Clouds
8:15 PM 63.7 °F 59.0 °F 85% 29.99 in 10.0 mi SE 19.6 mph 23.0 mph N/A   Mostly Cloudy
8:35 PM 63.1 °F 57.7 °F 83% 30.00 in 10.0 mi SE 16.1 mph 21.9 mph N/A   Scattered Clouds
8:55 PM 62.6 °F 57.4 °F 83% 30.00 in 10.0 mi SE 13.8 mph 20.7 mph N/A   Mostly Cloudy
9:15 PM 62.1 °F 57.4 °F 85% 29.99 in 10.0 mi SE 11.5 mph - N/A   Scattered Clouds
9:35 PM 61.7 °F 57.4 °F 86% 29.99 in 10.0 mi SE 11.5 mph - N/A   Clear
9:55 PM 61.7 °F 57.4 °F 86% 30.00 in 10.0 mi SSE 10.4 mph - N/A   Clear
10:15 PM 61.7 °F 57.2 °F 85% 29.99 in 10.0 mi SE 11.5 mph 16.1 mph N/A   Clear
10:35 PM 61.9 °F 57.2 °F 85% 30.00 in 10.0 mi SE 10.4 mph - N/A   Scattered Clouds
10:55 PM 62.6 °F 57.7 °F 84% 30.00 in 10.0 mi SSE 12.7 mph - N/A   Overcast
11:15 PM 63.0 °F 58.1 °F 84% 30.00 in 10.0 mi SSE 10.4 mph - N/A   Overcast
11:35 PM 63.1 °F 58.1 °F 84% 30.00 in 10.0 mi South 10.4 mph 16.1 mph N/A   Overcast
11:55 PM 62.6 °F 58.1 °F 85% 30.00 in 10.0 mi SSE 10.4 mph - N/A   Mostly Cloudy